Amateur Radio Satellites - All Passes

Search period start: 19 June 2013 06:49
Search period end: 20 June 2013 06:49
Location: Hall+in+Tirol, 47.2830°N, 11.5170°E

Satellite Date Start Highest point End Downlink Frequencies (MHz)
Time Altitude Azimuth
STRAND 1 19 Jun 07:00:39 07:05:44 64° 258° (WSW) 07:10:53 ?
TMSAT-1 19 Jun 07:03:10 07:06:27 17° 303° (WNW) 07:09:44 436.925 FM
Hamsat 19 Jun 07:22:46 07:26:05 21° 92° (E) 07:29:23 145.90 MHz
UOSAT-12 19 Jun 07:25:14 07:28:04 16° 333° (NNW) 07:30:54 437.025 FM, 437.400 FM
SO-50 19 Jun 07:27:51 07:28:32 10° 13° (NNE) 07:29:12 436.795 FM
Sapphire 19 Jun 07:41:50 07:44:01 12° 20° (NNE) 07:46:13 437.095 MHz 1200 baud AX-25 AFSK
JAS-1B 19 Jun 07:53:43 07:58:40 28° 95° (E) 08:04:04 435.800 - 435.900 CW/SSB
Saudisat 1A 19 Jun 08:09:48 08:13:55 34° 242° (WSW) 08:17:57 436.775 MHz
Oscar 10/S400 19 Jun 08:18:59 10:34:48 24° 272° (W) 15:24:48 145.825 - 145.975 CW/USB, Beacon 145.810 USB
AO-7 19 Jun 08:31:51 08:38:35 28° 310° (NW) 08:45:18 29.400 - 29.500 MHz
SO-67 19 Jun 08:32:29 08:35:47 33° 97° (E) 08:39:04 435.3500 MHz FM
PCSat 19 Jun 08:49:47 08:54:11 24° 38° (NE) 08:58:34 145.825 MHz
Hamsat 19 Jun 08:58:11 09:02:23 44° 290° (WNW) 09:06:32 145.90 MHz
SO-50 19 Jun 09:06:55 09:10:46 26° 37° (NE) 09:14:34 436.795 FM
Sapphire 19 Jun 09:24:09 09:29:09 35° 45° (NE) 09:34:08 437.095 MHz 1200 baud AX-25 AFSK
JAS-1B 19 Jun 09:44:06 09:49:38 50° 292° (WNW) 09:55:45 435.800 - 435.900 CW/SSB
SO-67 19 Jun 10:06:26 10:09:03 19° 294° (WNW) 10:11:38 435.3500 MHz FM
HO-68 19 Jun 10:28:55 10:35:55 52° 101° (E) 10:42:52 435.675 MHz FM
PCSat 19 Jun 10:32:48 10:38:15 80° 239° (WSW) 10:43:40 145.825 MHz
Oscar 11 19 Jun 10:37:51 10:41:52 34° 96° (E) 10:45:51 145.825 FM, Beacon 2401.500 USB
SO-50 19 Jun 10:47:15 10:51:44 60° 237° (WSW) 10:56:09 436.795 FM
UOSAT-12 19 Jun 10:50:04 10:52:28 14° 23° (NNE) 10:54:53 437.025 FM, 437.400 FM
JAS-2 19 Jun 10:50:31 10:56:01 64° 101° (ESE) 11:01:09 435.800 - 435.900 CW/SSB, 435.910 FM
OPAL 19 Jun 11:04:45 11:08:06 18° 93° (E) 11:11:27 ?
Sapphire 19 Jun 11:07:33 11:12:44 46° 245° (WSW) 11:17:53 437.095 MHz 1200 baud AX-25 AFSK
RS-15 19 Jun 11:23:58 11:34:29 38° 108° (ESE) 11:44:36 29.354 - 29.394 USB, Beacon 29.352 USB
Oscar 19 19 Jun 12:12:52 12:13:29 10° 51° (NE) 12:14:06 437.125 CW, 437.150 USB
Oscar 11 19 Jun 12:14:17 12:18:00 27° 294° (WNW) 12:21:41 145.825 FM, Beacon 2401.500 USB
HO-68 19 Jun 12:16:56 12:23:26 38° 300° (WNW) 12:29:55 435.675 MHz FM
PCSat 19 Jun 12:18:28 12:20:47 13° 258° (WSW) 12:23:07 145.825 MHz
UOSAT-12 19 Jun 12:29:19 12:33:47 46° 45° (NE) 12:38:14 437.025 FM, 437.400 FM
ITAMSAT 1 19 Jun 12:35:02 12:37:35 14° 54° (NE) 12:40:09 435.822 SSB
AO-27 19 Jun 12:35:54 12:38:36 14° 54° (NE) 12:41:19 436.795 MHz FM
JAS-2 19 Jun 12:36:36 12:40:35 21° 303° (WNW) 12:44:23 435.800 - 435.900 CW/SSB, 435.910 FM
OPAL 19 Jun 12:42:32 12:47:27 65° 291° (WNW) 12:52:23 ?
Oscar 16 19 Jun 12:53:43 12:57:54 25° 62° (ENE) 13:02:04 437.025 USB, Beacon 2401.1428
Uribyol 2 19 Jun 13:06:37 13:10:49 25° 61° (ENE) 13:15:01 436.500 FM
AO-Echo 19 Jun 13:17:10 13:18:02 10° 53° (NE) 13:18:54 ?
RS-15 19 Jun 13:34:12 13:46:08 75° 311° (NW) 13:57:34 29.354 - 29.394 USB, Beacon 29.352 USB
Oscar 19 19 Jun 13:46:45 13:51:49 59° 71° (ENE) 13:56:53 437.125 CW, 437.150 USB
AO-7 19 Jun 14:03:05 14:05:56 12° 32° (NNE) 14:08:47 29.400 - 29.500 MHz
UOSAT-12 19 Jun 14:09:51 14:13:47 28° 244° (WSW) 14:17:42 437.025 FM, 437.400 FM
Gurwin Techsat 1B 19 Jun 14:09:53 14:12:37 14° 55° (NE) 14:15:22 435.225 FM
ITAMSAT 1 19 Jun 14:11:04 14:16:16 79° 73° (ENE) 14:21:32 435.822 SSB
AO-27 19 Jun 14:12:07 14:17:20 82° 74° (ENE) 14:22:36 436.795 MHz FM
OPAL 19 Jun 14:24:00 14:25:27 11° 310° (NW) 14:26:53 ?
Oscar 16 19 Jun 14:31:57 14:36:59 51° 260° (W) 14:42:02 437.025 USB, Beacon 2401.1428
Uribyol 2 19 Jun 14:44:54 14:50:00 53° 260° (W) 14:55:08 436.500 FM
AO-Echo 19 Jun 14:51:13 14:55:53 68° 73° (ENE) 15:00:42 ?
TMSAT-1 19 Jun 15:07:14 15:11:40 28° 63° (ENE) 15:16:08 436.925 FM
Uosat F 19 Jun 15:10:34 15:15:18 44° 68° (ENE) 15:20:05 435.120 FM
Oscar 19 19 Jun 15:27:44 15:31:34 21° 269° (W) 15:35:24 437.125 CW, 437.150 USB
ISS 19 Jun 15:36:15 15:36:32 10° 132° (SE) 15:36:49 145.800 FM
Gurwin Techsat 1B 19 Jun 15:46:29 15:51:47 81° 74° (ENE) 15:57:08 435.225 FM
AO-7 19 Jun 15:48:55 15:56:25 39° 56° (NE) 16:03:57 29.400 - 29.500 MHz
RS-15 19 Jun 15:50:12 16:00:43 37° 341° (NNW) 16:10:51 29.354 - 29.394 USB, Beacon 29.352 USB
ITAMSAT 1 19 Jun 15:53:22 15:56:25 16° 272° (W) 15:59:29 435.822 SSB
AO-27 19 Jun 15:54:39 15:57:32 15° 272° (W) 16:00:26 436.795 MHz FM
AO-Echo 19 Jun 16:32:26 16:35:14 16° 271° (W) 16:38:06 ?
KITSAT 1 19 Jun 16:38:16 16:43:57 22° 103° (ESE) 16:49:39 435.175 FM
TMSAT-1 19 Jun 16:46:17 16:51:23 47° 261° (W) 16:56:32 436.925 FM
Uosat F 19 Jun 16:50:06 16:54:18 27° 266° (W) 16:58:32 435.120 FM
ISS 19 Jun 17:09:23 17:12:37 58° 149° (SSE) 17:15:52 145.800 FM
Gurwin Techsat 1B 19 Jun 17:29:21 17:32:25 15° 272° (W) 17:35:31 435.225 FM
AO-7 19 Jun 17:40:44 17:48:55 59° 257° (WSW) 17:57:11 29.400 - 29.500 MHz
RS-15 19 Jun 18:06:55 18:17:04 35° 15° (NNE) 18:26:51 29.354 - 29.394 USB, Beacon 29.352 USB
Hamsat 19 Jun 18:20:00 18:23:27 23° 64° (ENE) 18:26:56 145.90 MHz
KITSAT 1 19 Jun 18:30:10 18:38:15 87° 123° (ESE) 18:46:25 435.175 FM
JAS-1B 19 Jun 18:42:57 18:48:50 35° 64° (ENE) 18:54:06 435.800 - 435.900 CW/SSB
ISS 19 Jun 18:46:15 18:49:25 43° 349° (NNW) 18:52:35 145.800 FM
MaSat-1 19 Jun 19:02:46 19:05:23 14° 107° (ESE) 19:07:44 437.345 MHz
STRAND 1 19 Jun 19:08:22 19:13:05 34° 96° (E) 19:17:45 ?
SO-67 19 Jun 19:11:46 19:14:33 22° 67° (ENE) 19:17:20 435.3500 MHz FM
HO-68 19 Jun 19:17:56 19:21:15 14° 43° (NE) 19:24:34 435.675 MHz FM
JAS-2 19 Jun 19:26:55 19:27:31 10° 47° (NE) 19:28:06 435.800 - 435.900 CW/SSB, 435.910 FM
AO-7 19 Jun 19:40:55 19:43:33 12° 278° (W) 19:46:11 29.400 - 29.500 MHz
Hamsat 19 Jun 19:55:12 19:59:19 41° 263° (W) 20:03:29 145.90 MHz
RS-15 19 Jun 20:20:37 20:31:50 70° 46° (NE) 20:42:41 29.354 - 29.394 USB, Beacon 29.352 USB
ISS 19 Jun 20:23:23 20:26:31 40° 9° (N) 20:29:40 145.800 FM
KITSAT 1 19 Jun 20:27:29 20:34:39 33° 328° (NNW) 20:41:53 435.175 FM
JAS-1B 19 Jun 20:33:00 20:39:29 44° 261° (W) 20:45:11 435.800 - 435.900 CW/SSB
MaSat-1 19 Jun 20:41:40 20:47:00 82° 299° (WNW) 20:51:06 437.345 MHz
SO-67 19 Jun 20:44:43 20:47:52 29° 264° (W) 20:51:02 435.3500 MHz FM
STRAND 1 19 Jun 20:47:36 20:52:17 36° 295° (WNW) 20:56:57 ?
HO-68 19 Jun 21:00:33 21:07:26 54° 65° (ENE) 21:14:21 435.675 MHz FM
JAS-2 19 Jun 21:04:25 21:11:14 46° 67° (ENE) 21:17:21 435.800 - 435.900 CW/SSB, 435.910 FM
Oscar 11 19 Jun 21:36:08 21:40:14 41° 69° (ENE) 21:44:21 145.825 FM, Beacon 2401.500 USB
ISS 19 Jun 22:00:06 22:03:23 72° 208° (SSW) 22:06:40 145.800 FM
Saudisat 1A 19 Jun 22:19:50 22:23:49 30° 116° (ESE) 22:27:50 436.775 MHz
OPAL 19 Jun 22:22:16 22:27:03 47° 66° (ENE) 22:31:49 ?
MaSat-1 19 Jun 22:27:01 22:29:10 13° 314° (NW) 22:31:06 437.345 MHz
KITSAT 1 19 Jun 22:27:12 22:32:56 20° 357° (N) 22:38:41 435.175 FM
RS-15 19 Jun 22:33:38 22:43:31 40° 251° (WSW) 22:53:15 29.354 - 29.394 USB, Beacon 29.352 USB
HO-68 19 Jun 22:48:59 22:55:23 35° 264° (W) 23:01:51 435.675 MHz FM
JAS-2 19 Jun 22:49:31 22:56:19 40° 263° (W) 23:02:29 435.800 - 435.900 CW/SSB, 435.910 FM
Oscar 11 19 Jun 23:13:11 23:16:37 22° 267° (W) 23:20:05 145.825 FM, Beacon 2401.500 USB
ISS 19 Jun 23:37:58 23:39:34 13° 226° (SW) 23:41:11 145.800 FM
Saudisat 1A 19 Jun 23:59:00 00:03:23 43° 316° (NW) 00:07:49 436.775 MHz
OPAL 20 Jun 00:02:04 00:06:10 25° 264° (W) 00:10:17 ?
Sapphire 20 Jun 00:12:03 00:14:47 14° 103° (ESE) 00:17:32 437.095 MHz 1200 baud AX-25 AFSK
KITSAT 1 20 Jun 00:24:37 00:31:28 28° 27° (NNE) 00:38:17 435.175 FM
AO-40 20 Jun 00:31:05 02:06:55 31° 221° (SW) 06:21:41 Beacon 2401.320
SO-50 20 Jun 01:06:18 01:09:56 22° 113° (ESE) 01:13:31 436.795 FM
PCSat 20 Jun 01:17:39 01:22:51 50° 116° (ESE) 01:28:06 145.825 MHz
Saudisat 1A 20 Jun 01:41:58 01:44:16 14° 338° (NNW) 01:46:34 436.775 MHz
Sapphire 20 Jun 01:51:59 01:57:24 86° 122° (ESE) 02:02:52 437.095 MHz 1200 baud AX-25 AFSK
Oscar 19 20 Jun 01:56:28 01:59:38 16° 89° (E) 02:02:46 437.125 CW, 437.150 USB
KITSAT 1 20 Jun 02:20:08 02:28:19 74° 52° (NE) 02:36:26 435.175 FM
ITAMSAT 1 20 Jun 02:21:36 02:25:40 22° 92° (E) 02:29:42 435.822 SSB
AO-27 20 Jun 02:22:44 02:26:54 23° 92° (E) 02:31:02 436.795 MHz FM
Oscar 16 20 Jun 02:40:27 02:45:23 45° 99° (E) 02:50:16 437.025 USB, Beacon 2401.1428
SO-50 20 Jun 02:45:30 02:50:12 60° 312° (NW) 02:54:51 436.795 FM
Uribyol 2 20 Jun 02:54:29 02:59:29 44° 98° (E) 03:04:26 436.500 FM
AO-Echo 20 Jun 02:55:52 02:59:28 19° 90° (E) 03:03:06 ?
PCSat 20 Jun 03:01:37 03:06:30 33° 316° (NW) 03:11:26 145.825 MHz
Uosat F 20 Jun 03:18:31 03:18:58 10° 85° (E) 03:19:25 435.120 FM
Oscar 19 20 Jun 03:34:26 03:39:34 73° 287° (WNW) 03:44:39 437.125 CW, 437.150 USB
Sapphire 20 Jun 03:37:17 03:41:32 23° 324° (NW) 03:45:49 437.095 MHz 1200 baud AX-25 AFSK
Gurwin Techsat 1B 20 Jun 04:00:05 04:04:29 26° 93° (E) 04:08:52 435.225 FM
ITAMSAT 1 20 Jun 04:00:24 04:05:31 55° 290° (WNW) 04:10:36 435.822 SSB
AO-27 20 Jun 04:01:39 04:06:45 53° 291° (WNW) 04:11:48 436.795 MHz FM
KITSAT 1 20 Jun 04:16:17 04:23:04 30° 253° (WSW) 04:29:49 435.175 FM
Oscar 16 20 Jun 04:20:14 04:24:33 28° 297° (WNW) 04:28:51 437.025 USB, Beacon 2401.1428
UOSAT-12 20 Jun 04:23:43 04:27:56 41° 119° (ESE) 04:32:13 437.025 FM, 437.400 FM
SO-50 20 Jun 04:28:50 04:31:46 16° 333° (NNW) 04:34:42 436.795 FM
AO-Echo 20 Jun 04:33:36 04:38:41 66° 288° (WNW) 04:43:53 ?
Uribyol 2 20 Jun 04:34:21 04:38:48 29° 297° (WNW) 04:43:14 436.500 FM
PCSat 20 Jun 04:49:43 04:51:42 12° 341° (NNW) 04:53:41 145.825 MHz
STRAND 1 20 Jun 04:52:24 04:54:13 12° 53° (NE) 04:56:02 ?
Uosat F 20 Jun 04:53:33 04:58:39 76° 104° (ESE) 05:03:42 435.120 FM
TMSAT-1 20 Jun 04:58:42 05:03:57 55° 100° (E) 05:09:08 436.925 FM
Saudisat 1A 20 Jun 05:04:48 05:07:43 16° 27° (NNE) 05:10:36 436.775 MHz
Oscar 19 20 Jun 05:15:58 05:18:03 13° 306° (NW) 05:20:07 437.125 CW, 437.150 USB
MaSat-1 20 Jun 05:21:23 05:24:00 81° 59° (ENE) 05:26:30 437.345 MHz
AO-7 20 Jun 05:38:37 05:46:27 41° 98° (E) 05:54:12 29.400 - 29.500 MHz
Gurwin Techsat 1B 20 Jun 05:39:36 05:44:44 49° 291° (WNW) 05:49:49 435.225 FM
UOSAT-12 20 Jun 06:04:05 06:08:12 33° 319° (NW) 06:12:23 437.025 FM, 437.400 FM
AO-Echo 20 Jun 06:14:59 06:16:34 11° 306° (NW) 06:18:10 ?
STRAND 1 20 Jun 06:27:24 06:32:29 68° 72° (ENE) 06:37:38 ?
Uosat F 20 Jun 06:33:35 06:36:53 18° 302° (WNW) 06:40:11 435.120 FM
TMSAT-1 20 Jun 06:39:19 06:43:32 25° 299° (WNW) 06:47:44 436.925 FM

Developed and maintained by Chris Peat, Heavens-Above GmbH. Please read the updated FAQ before sending e-mail. Imprint. DLR
